Oklahoma City Wiley Post, OK

7:18 AM CDT on October 21, 2017 (GMT -0500)
Wiley Post

Weather History for KPWA - May, 2013

Change the Weather History Date:

Thursday, May 23, 2013

  Actual Average Record
Temperature  
Mean Temperature 69 °F -  
Max Temperature 79 °F 79 °F 99 °F (2000)
Min Temperature 60 °F 60 °F 46 °F (1963)
Cooling Degree Days 4    
Growing Degree Days 19 (Base 50)    
Moisture  
Dew Point 59 °F    
Average Humidity 81    
Maximum Humidity 94    
Minimum Humidity 54    
Precipitation  
Precipitation 2.92 in - - ()
Sea Level Pressure  
Sea Level Pressure 30.02 in    
Wind  
Wind Speed 10 mph (East)    
Max Wind Speed 30 mph    
Max Gust Speed 48 mph    
Visibility 6 miles    
Events Fog , Rain , Thunderstorm    
Averages and records for this station are not official NWS values.
T = Trace of Precipitation, MM = Missing Value Source: NWS Daily Summary

Daily Weather History Graph

Daily Weather History Graph

Search for Another Location

Airport or City:

Trip Planner

Search our weather history database for the weather conditions in past years. The results will help you decide how hot, cold, wet, or windy it might be!

Date:

Astronomy

May. 23, 2013 Rise Set
Actual Time 6:20 AM CDT 8:34 PM CDT
Civil Twilight 5:51 AM CDT 9:03 PM CDT
Nautical Twilight 5:16 AM CDT 9:39 PM CDT
Astronomical Twilight 4:37 AM CDT 10:17 PM CDT
Moon 7:11 PM CDT (5/23) 5:02 AM CDT (5/23)
Length of Visible Light 15h 12m
Length of Day
14h 14m
Waxing Gibbous, 97% of the Moon is Illuminated
May 23
Waxing Gibbous
May 24
Full
May 31
Last Quarter
Jun 8
New
Jun 16
First Quarter

Hourly Weather History & Observations

Time (CDT) Temp. Dew Point Humidity Pressure Visibility Wind Dir Wind Speed Gust Speed Precip Events Conditions
12:53 AM 69.1 °F 55.0 °F 61% 29.89 in 10.0 mi ESE 6.9 mph - N/A   Clear
1:53 AM 68.0 °F 55.0 °F 63% 29.90 in 10.0 mi SSE 8.1 mph - N/A   Clear
2:53 AM 66.0 °F 55.0 °F 68% 29.91 in 10.0 mi SSE 9.2 mph - N/A   Clear
3:29 AM 66.2 °F 55.4 °F 68% 29.94 in 10.0 mi SSE 9.2 mph - N/A Thunderstorm Thunderstorm
3:53 AM 66.9 °F 57.0 °F 70% 29.92 in 7.0 mi SSE 8.1 mph - 0.04 in Rain , Thunderstorm Thunderstorms and Rain
4:22 AM 64.4 °F 57.2 °F 77% 29.96 in 8.0 mi SE 6.9 mph - 0.10 in Rain , Thunderstorm Light Rain
4:53 AM 64.9 °F 59.0 °F 81% 29.95 in 10.0 mi Calm Calm - 0.10 in Thunderstorm Partly Cloudy
5:02 AM 64.4 °F 59.0 °F 83% 29.98 in 10.0 mi NE 4.6 mph - N/A Thunderstorm Mostly Cloudy
5:23 AM 64.4 °F 59.0 °F 83% 30.00 in 10.0 mi NNE 3.5 mph - N/A   Scattered Clouds
5:39 AM 64.4 °F 60.8 °F 88% 29.99 in 10.0 mi North 6.9 mph - N/A Thunderstorm Mostly Cloudy
5:53 AM 64.9 °F 60.1 °F 84% 29.95 in 7.0 mi SE 10.4 mph - 0.02 in Rain , Thunderstorm Light Thunderstorms and Rain
6:35 AM 64.4 °F 60.8 °F 88% 29.95 in 2.5 mi SSW 24.2 mph 33.4 mph 0.07 in Rain , Thunderstorm Thunderstorms and Rain
6:43 AM 62.6 °F 59.0 °F 88% 29.94 in 0.8 mi SSW 29.9 mph 47.2 mph 0.18 in Rain , Thunderstorm Heavy Thunderstorms and Rain
6:53 AM 61.0 °F 57.0 °F 87% 29.93 in 1.8 mi South 20.7 mph 48.3 mph 0.26 in Rain , Thunderstorm Thunderstorms and Rain
7:00 AM 60.8 °F 55.4 °F 82% 29.97 in 2.0 mi SW 8.1 mph 32.2 mph 0.01 in Rain , Thunderstorm Thunderstorms and Rain
7:19 AM 60.8 °F 57.2 °F 88% 30.02 in 4.0 mi NNW 6.9 mph - 0.06 in Rain , Thunderstorm Thunderstorms and Rain
7:26 AM 60.8 °F 55.4 °F 82% 30.01 in 1.8 mi Calm Calm - 0.11 in Rain , Thunderstorm Heavy Thunderstorms and Rain
7:37 AM 60.8 °F 57.2 °F 88% 29.99 in 3.0 mi South 4.6 mph - 0.19 in Rain , Thunderstorm Heavy Thunderstorms and Rain
7:53 AM 61.0 °F 57.9 °F 90% 29.98 in 3.0 mi East 5.8 mph - 0.25 in Rain , Thunderstorm Thunderstorms and Rain
8:08 AM 60.8 °F 57.2 °F 88% 30.02 in 1.2 mi NE 11.5 mph - 0.14 in Rain , Thunderstorm Heavy Thunderstorms and Rain
8:40 AM 60.8 °F 57.2 °F 88% 30.05 in 2.5 mi SE 9.2 mph - 0.37 in Rain , Thunderstorm Light Thunderstorms and Rain
8:53 AM 61.0 °F 57.9 °F 90% 30.02 in 5.0 mi East 11.5 mph - 0.38 in Rain , Thunderstorm Light Thunderstorms and Rain
9:15 AM 62.6 °F 57.2 °F 82% 30.05 in 0.8 mi ESE 8.1 mph 24.2 mph 0.24 in Rain , Thunderstorm Heavy Thunderstorms and Rain
9:49 AM 60.8 °F 57.2 °F 88% 30.09 in - SSW 19.6 mph 23.0 mph 0.97 in Rain , Thunderstorm Heavy Thunderstorms and Rain
9:53 AM 60.1 °F 57.9 °F 93% 30.04 in 0.5 mi South 12.7 mph 23.0 mph 1.24 in Fog , Rain , Thunderstorm Heavy Thunderstorms and Rain
10:15 AM 60.8 °F 57.2 °F 88% 30.04 in 2.0 mi ENE 11.5 mph - 0.51 in Rain , Thunderstorm Heavy Thunderstorms and Rain
10:29 AM 62.6 °F 57.2 °F 82% 30.07 in 5.0 mi SE 12.7 mph - 0.59 in Rain , Thunderstorm Light Thunderstorms and Rain
10:53 AM 62.1 °F 57.9 °F 86% 30.03 in 10.0 mi ENE 6.9 mph - 0.63 in Rain , Thunderstorm Light Rain
11:00 AM 64.4 °F 59.0 °F 83% 30.05 in 10.0 mi ENE 10.4 mph - 0.00 in   Overcast
11:28 AM 66.2 °F 62.6 °F 88% 30.07 in 4.0 mi NE 11.5 mph - 0.00 in   Overcast
11:36 AM 64.4 °F 62.6 °F 94% 30.08 in 2.5 mi NE 13.8 mph - 0.00 in   Overcast
11:45 AM 64.4 °F 62.6 °F 94% 30.07 in 3.0 mi ENE 15.0 mph - 0.00 in   Overcast
11:53 AM 66.0 °F 62.1 °F 87% 30.05 in 3.0 mi ENE 17.3 mph - 0.00 in   Mostly Cloudy
12:48 PM 68.0 °F 62.6 °F 83% 30.09 in 7.0 mi ENE 12.7 mph - N/A   Mostly Cloudy
12:53 PM 69.1 °F 62.1 °F 78% 30.06 in 7.0 mi ENE 11.5 mph - N/A   Mostly Cloudy
1:21 PM 66.2 °F 62.6 °F 88% 30.09 in 7.0 mi ENE 17.3 mph - N/A   Overcast
1:53 PM 64.9 °F 59.0 °F 81% 30.07 in 7.0 mi ENE 17.3 mph 23.0 mph N/A   Mostly Cloudy
2:05 PM 66.2 °F 60.8 °F 83% 30.09 in 8.0 mi ENE 16.1 mph 24.2 mph N/A   Overcast
2:53 PM 69.1 °F 60.1 °F 73% 30.05 in 10.0 mi East 13.8 mph - N/A   Mostly Cloudy
3:53 PM 75.9 °F 59.0 °F 56% 30.00 in 10.0 mi ESE 12.7 mph - N/A   Clear
4:53 PM 78.1 °F 60.1 °F 54% 30.00 in 10.0 mi NE 13.8 mph - N/A   Clear
5:53 PM 73.0 °F 62.1 °F 68% 30.02 in 10.0 mi NE 15.0 mph - N/A   Clear
6:53 PM 66.0 °F 59.0 °F 78% 30.04 in 10.0 mi NE 13.8 mph - N/A   Partly Cloudy
7:53 PM 64.9 °F 57.9 °F 78% 30.04 in 10.0 mi ENE 9.2 mph - N/A   Clear
8:53 PM 64.0 °F 57.9 °F 80% 30.05 in 10.0 mi ENE 10.4 mph - N/A   Clear
9:53 PM 63.0 °F 57.9 °F 84% 30.08 in 10.0 mi ENE 11.5 mph - N/A   Clear
10:53 PM 62.1 °F 57.0 °F 84% 30.10 in 10.0 mi ENE 11.5 mph - N/A   Clear
11:53 PM 62.1 °F 55.9 °F 80% 30.10 in 10.0 mi ENE 11.5 mph - N/A   Clear